Regional Weather Roundup
Issued by NWS Charleston, WV

Home | Current Version | Previous Version | Text Only | Print | Product List | Glossary Off
Versions: 1 2 3 4 5 6 7 8 9 10 11 12 13 14 15 16 17 18 19 20 21 22 23 24 25 26 27 28 29 30 31 32 33 34 35 36 37 38 39 40 41 42 43 44 45 46 47 48 49 50

000
ASUS41 KRLX 212010
RWRRLX
West Virginia Regional Weather Roundup
National Weather Service Charleston WV
300 PM EST TUE NOV 21 2017

Note: "fair" indicates few or no clouds below 12,000 feet with no
significant weather and/or obstructions to visibility.

WVZ003-212100-
Northern Panhandle of West Virginia

CITY           SKY/WX    TMP DP  RH WIND       PRES   REMARKS
WHEELING       SUNNY     55  25  31 SW18G28   29.90S
$$

WVZ009-212100-
Northwest West Virginia

CITY           SKY/WX    TMP DP  RH WIND       PRES   REMARKS
PARKERSBURG    SUNNY     59  28  30 SW16G28   29.95F
$$

WVZ006-212100-
Western West Virginia

CITY           SKY/WX    TMP DP  RH WIND       PRES   REMARKS
HUNTINGTON     SUNNY     62  37  39 SW12G24   29.95F
$$

WVZ015-212100-
West Central West Virginia

CITY           SKY/WX    TMP DP  RH WIND       PRES   REMARKS
CHARLESTON     MOSUNNY   64  35  34 SW12G21   29.96F
$$

WVZ022-031-212100-
North Central West Virginia

CITY           SKY/WX    TMP DP  RH WIND       PRES   REMARKS
CLARKSBURG     SUNNY     60  28  29 SW13G23   29.94F
MORGANTOWN     SUNNY     58  26  29 SW15G21   29.93F
$$

WVZ025-035-042-045-212100-
Southern West Virginia

CITY           SKY/WX    TMP DP  RH WIND       PRES   REMARKS
BECKLEY        SUNNY     59  35  40 SW18G29   30.00F
LOGAN            N/A     63  39  42 VRB7G15   29.97S
BLUEFIELD      CLOUDY    56  37  49 SW16G31   30.03F
LEWISBURG      CLOUDY    57  37  47 SW7       30.03F
$$

WVZ047-212100-
Northern Mountains of West Virginia

CITY           SKY/WX    TMP DP  RH WIND       PRES   REMARKS
ELKINS         CLOUDY    57  28  33 S8        29.97F
$$

WVZ052-212100-
Eastern Panhandle of West Virginia

CITY           SKY/WX    TMP DP  RH WIND       PRES   REMARKS
MARTINSBURG    SUNNY     59  29  31 S9        29.96F
PETERSBURG     SUNNY     62  24  23 S8        29.95S
$$



USA.gov is the U.S. government's official web portal to all federal, state and local government web resources and services.